This demonstration page uses our WeatherBlox Daily Observations layout. Learn more.

Left ArrowRight Arrow

44.89941, -97.11507

Hourly Observations for November 10, 2019

Temp ( °F °C ) Dew Point ( °F °C ) Humidity (%) Winds ( mph kmh ) Pressure ( in mb ) Visibility ( mi km ) Precip ( " mm )
12:53 am 00:53 Cloudy 31 -0.6 29 -1.7 92 92 NNE 13 20 30.09 1019 10 16 0.00 0.00
1:37 am 01:37 Cloudy with Mist and Fog 30 -1.1 29 -1.7 96 96 NNE 14 22 30.13 1020 4 6 0.00 0.00
1:53 am 01:53 Cloudy with Mist and Fog 29 -1.7 28 -2.2 96 96 NNE 12 19 30.09 1019 5 8 0.00 0.00
2:24 am 02:24 Cloudy with Mist and Fog 27 -2.8 26 -3.3 96 96 NE 18 30 30.16 1021 2 3 0.00 0.00
2:36 am 02:36 Cloudy with Mist and Fog 27 -2.8 26 -3.3 96 96 NNE 18 30 30.17 1022 1 2 0.00 0.00
2:43 am 02:43 Cloudy with Mist and Fog 26 -3.3 25 -3.9 96 96 NNE 17 28 30.18 1022 2 3 0.00 0.00
2:53 am 02:53 Cloudy with Mist and Fog 25 -3.9 24 -4.4 96 96 NNE 17 28 30.14 1021 4 6 0.00 0.00
3:12 am 03:12 Cloudy 24 -4.4 23 -5 96 96 N 13 20 30.20 1023 9 14 0.00 0.00
3:32 am 03:32 Cloudy 25 -3.9 22 -5.6 88 88 NNE 15 24 30.21 1023 10 16 0.00 0.00
3:53 am 03:53 Cloudy 24 -4.4 21 -6.1 88 88 N 17 28 30.17 1022 10 16 0.00 0.00
4:10 am 04:10 Windy with Snow Likely 23 -5 20 -6.7 88 88 N 20 31 30.23 1024 2 3 0.00 0.00
4:18 am 04:18 Cloudy with Light Snow 23 -5 21 -6.1 92 92 N 16 26 30.23 1024 2 2 0.00 0.00
4:31 am 04:31 Cloudy with Light Snow 23 -5 21 -6.1 92 92 NNE 16 26 30.24 1024 2 3 0.00 0.00
4:35 am 04:35 Windy with Snow Likely 23 -5 20 -6.7 88 88 N 20 31 30.24 1024 2 3 0.00 0.00
4:53 am 04:53 Cloudy with Light Snow 22 -5.6 19 -7.2 89 89 NNE 15 24 30.18 1022 2 3 0.00 0.00
5:11 am 05:11 Cloudy with Light Snow 22 -5.6 18 -7.8 85 85 N 16 26 30.25 1024 4 6 0.00 0.00
5:22 am 05:22 Cloudy 22 -5.6 16 -8.9 78 78 N 21 33 30.25 1024 9 14 0.00 0.00
5:53 am 05:53 Cloudy with Light Snow 20 -6.7 16 -8.9 85 85 N 17 28 30.21 1023 4 6 0.00 0.00
6:53 am 06:53 Mostly Cloudy 19 -7.2 14 -10 81 81 NNE 14 22 30.22 1024 10 16 0.00 0.00
7:53 am 07:53 Cloudy 19 -7.2 14 -10 81 81 NNE 16 26 30.26 1025 10 16 0.00 0.00
8:53 am 08:53 Cloudy 19 -7.2 14 -10 81 81 N 15 24 30.29 1026 10 16 0.00 0.00
9:05 am 09:05 Cloudy with Light Snow 19 -7.2 14 -10 81 81 NNE 15 24 30.33 1027 2 3 0.00 0.00
9:22 am 09:22 Cloudy with Light Snow 19 -7.2 13 -10.6 77 77 NNE 15 24 30.34 1028 3 5 0.00 0.00
9:53 am 09:53 Cloudy with Light Snow 19 -7.2 12 -11.1 74 74 NNE 17 28 30.27 1025 7 11 0.00 0.00
10:53 am 10:53 Cloudy 19 -7.2 11 -11.7 71 71 N 16 26 30.31 1026 10 16 0.00 0.00
11:53 am 11:53 Cloudy 18 -7.8 10 -12.2 71 71 N 17 28 30.32 1027 10 16 0.00 0.00
12:53 pm 12:53 Cloudy 17 -8.3 10 -12.2 74 74 NNE 20 31 30.32 1027 10 16 0.00 0.00
1:43 pm 13:43 Cloudy with Light Snow 16 -8.9 10 -12.2 77 77 N 18 30 30.41 1030 3 4 0.00 0.00
1:53 pm 13:53 Windy with Snow Likely 16 -8.9 10 -12.2 77 77 N 21 33 30.34 1027 2 3 0.00 0.00
2:00 pm 14:00 Windy with Snow Likely 16 -8.9 11 -11.7 80 80 NNE 20 31 30.40 1029 1 2 0.00 0.00
2:24 pm 14:24 Windy with Snow Likely 16 -8.9 10 -12.2 77 77 N 21 33 30.41 1030 2 3 0.00 0.00
2:33 pm 14:33 Windy with Snow Likely 16 -8.9 9 -12.8 74 74 NNE 21 33 30.41 1030 4 6 0.00 0.00
2:43 pm 14:43 Cloudy with Light Snow 16 -8.9 10 -12.2 77 77 N 14 22 30.42 1030 3 4 0.00 0.00
2:53 pm 14:53 Cloudy with Light Snow 16 -8.9 10 -12.2 77 77 NNE 18 30 30.36 1028 2 3 0.00 0.00
3:00 pm 15:00 Cloudy with Light Snow 16 -8.9 11 -11.7 80 80 N 18 30 30.42 1030 1 1 0.00 0.00
3:12 pm 15:12 Cloudy with Light Snow 15 -9.4 11 -11.7 84 84 NNE 13 20 30.42 1030 2 2 0.00 0.00
3:20 pm 15:20 Cloudy with Light Snow 16 -8.9 10 -12.2 77 77 NNE 16 26 30.43 1030 3 5 0.00 0.00
3:35 pm 15:35 Cloudy with Light Snow 16 -8.9 11 -11.7 80 80 NNE 14 22 30.43 1030 2 3 0.00 0.00
3:45 pm 15:45 Cloudy with Light Snow 16 -8.9 9 -12.8 74 74 NNE 17 28 30.44 1031 3 5 0.00 0.00
3:53 pm 15:53 Cloudy 16 -8.9 10 -12.2 77 77 N 21 33 30.39 1029 9 14 0.00 0.00
4:53 pm 16:53 Cloudy with Light Snow 14 -10 9 -12.8 80 80 NNE 14 22 30.41 1030 4 6 0.00 0.00
5:33 pm 17:33 Mostly Cloudy 13 -10.6 7 -13.9 77 77 N 13 20 30.48 1032 10 16 0.00 0.00
5:53 pm 17:53 Partly Cloudy 13 -10.6 7 -13.9 77 77 NNE 15 24 30.42 1030 10 16 0.00 0.00
6:17 pm 18:17 Mostly Cloudy with Light Snow 13 -10.6 9 -12.8 84 84 N 12 19 30.50 1033 7 11 0.00 0.00
6:53 pm 18:53 Mostly Cloudy 13 -10.6 8 -13.3 81 81 N 17 28 30.46 1031 10 16 0.00 0.00
7:01 pm 19:01 Partly Cloudy 13 -10.6 7 -13.9 77 77 N 16 26 30.52 1034 10 16 0.00 0.00
7:53 pm 19:53 Clear 13 -10.6 7 -13.9 77 77 N 16 26 30.48 1032 10 16 0.00 0.00
8:53 pm 20:53 Cloudy 13 -10.6 7 -13.9 77 77 N 12 19 30.51 1033 10 16 0.00 0.00
9:53 pm 21:53 Mostly Cloudy 13 -10.6 8 -13.3 81 81 N 12 19 30.53 1034 10 16 0.00 0.00
10:00 pm 22:00 Mostly Cloudy 13 -10.6 7 -13.9 77 77 N 16 26 30.59 1036 10 16 0.00 0.00
10:53 pm 22:53 Cloudy 14 -10 8 -13.3 77 77 N 12 19 30.54 1034 10 16 0.00 0.00
11:53 pm 23:53 Mostly Clear 13 -10.6 6 -14.4 74 74 N 15 24 30.57 1035 10 16 0.00 0.00

Powered by AerisWeather